User: anonymous   Login
Location: Moscow
(38.8570°N, 84.2291°W)
Time: 23:42:24
(UTC+00:00)
Language:

NOAA 19 - Orbit

View from above orbital plane
View from above orbital plane
View from above satellite
View from above satellite

Ground track
Ground track

The orbit is defined by the following mean orbital elements,

1 33591U          26072.62866079 +.00000000 +00000-0 +52701-4 0 00004
2 33591  98.9599 143.4062 0012741 302.7236  57.2708 14.13457668    04
Epoch (UTC): 13 March 2026 15:05:16
Eccentricity: 0.0012741
inclination: 98.9599°
perigee height: 838 km
apogee height: 857 km
right ascension of ascending node: 143.4062°
argument of perigee: 302.7236°
revolutions per day: 14.13457668
mean anomaly at epoch: 57.2708°

The dashed part of the orbit path shows where the satellite is in the earth's shadow,  

DLR